sat.trackr.live / text

‹ back to catalog

STARLINK-34408

NORAD 64363 · 2025-126V

PAYLOAD ACTIVE UNKNOWN

§ Identity

Operator
Country
US
Launch date
2025-06-13
Launch site
AFWTR
Launch vehicle
Mass (kg)
RCS (m²)

Purposes: comms

External: N2YO · Heavens-Above · Gunter

§ Orbital elements

Epoch: 2026-05-24T13:54:25.794144Z

Period
96.11 min
Inclination
70.0004°
Eccentricity
0.0004117
Mean motion
14.98333791 rev/d
Perigee alt
569.2 km
Apogee alt
574.9 km
Semi-major
6,950.2 km
B*
1.4312e-4
RAAN
202.9396°
Arg perigee
266.7554°
Mean anomaly
93.3134°
Rev number
5,205

§ Raw data

STARLINK-344081 64363U 25126V   26144.57946521  .00001615  00000+0  14312-3 0  99902 64363  70.0004 202.9396 0004117 266.7554  93.3134 14.98333791 52057

JSON: /api/v1/satellites/64363 · /tle

For live sub-satellite position, see the globe view (requires WebGL).

§ Visibility from observer

Set your observer location to see the next 7 days of passes ≥ 10°. The values pass through the URL so the page stays shareable.

No JS? Fill the form by hand. The geolocation button needs JavaScript.